Location: Newark
(45.4422°N, 16.2769°E)
Time: 03:20:20
(UTC+00:00)

Tiros 1 despin weight - Pass Details

Date: 20 December 2019
Orbit: 593 x 643 km, 48.2° (Epoch: 19 January)

Event Time Altitude Azimuth Distance (km) Brightness Sun altitude
Rises 00:49:21 0° 239° (WSW) 2,918 - -57.6°
Reaches altitude 10° 00:51:41 10° 237° (WSW) 2,006 - -57.3°
Maximum altitude 00:56:16 69° 155° (SSE) 671 - -56.6°
Drops below altitude 10° 01:00:49 10° 73° (ENE) 1,982 - -55.9°
Sets 01:03:07 0° 70° (ENE) 2,880 - -55.6°
